2023/01/29 00:00:00,84.3,-4.9
2023/01/29 00:10:00,84.3,-5.0
2023/01/29 00:20:00,84.5,-5.1
2023/01/29 00:30:00,84.4,-4.9
2023/01/29 00:40:00,84.3,-4.5
2023/01/29 00:50:00,84.2,-4.8
2023/01/29 01:00:00,84.1,-5.0
2023/01/29 01:10:00,84.0,-4.8
2023/01/29 01:20:00,84.0,-4.8
2023/01/29 01:30:00,83.9,-4.8
2023/01/29 01:40:00,84.0,-5.0
2023/01/29 01:50:00,84.1,-4.7
2023/01/29 02:00:00,84.2,-4.8
2023/01/29 02:10:00,84.0,-4.7
2023/01/29 02:20:00,84.1,-4.8
2023/01/29 02:30:00,84.3,-4.8
2023/01/29 02:40:00,84.7,-4.6
2023/01/29 02:50:00,84.9,-4.6
2023/01/29 03:00:00,84.8,-4.8
2023/01/29 03:10:00,84.8,-4.5
2023/01/29 03:20:00,84.8,-4.8
2023/01/29 03:30:00,84.6,-4.6
2023/01/29 03:40:00,84.4,-4.7
2023/01/29 03:50:00,84.3,-4.5
2023/01/29 04:00:00,84.2,-4.7
2023/01/29 04:10:00,84.2,-4.4
2023/01/29 04:20:00,84.2,-4.6
2023/01/29 04:30:00,84.1,-4.3
2023/01/29 04:40:00,83.9,-4.4
2023/01/29 04:50:00,83.8,-4.5
2023/01/29 05:00:00,83.9,-4.4
2023/01/29 05:10:00,83.8,-4.6
2023/01/29 05:20:00,83.6,-4.5
2023/01/29 05:30:00,83.7,-4.5
2023/01/29 05:40:00,84.1,-4.4
2023/01/29 05:50:00,84.1,-4.5
2023/01/29 06:00:00,84.1,-4.5
2023/01/29 06:10:00,84.1,-4.4
2023/01/29 06:20:00,84.0,-4.3
2023/01/29 06:30:00,84.2,-4.3
2023/01/29 06:40:00,83.7,-4.2
2023/01/29 06:50:00,83.5,-4.3
2023/01/29 07:00:00,83.3,-4.2
2023/01/29 07:10:00,83.3,-4.2
2023/01/29 07:20:00,83.3,-3.9
2023/01/29 07:30:00,83.3,-3.9
2023/01/29 07:40:00,83.2,-4.2
2023/01/29 07:50:00,83.2,-4.1
2023/01/29 08:00:00,83.2,-4.2
2023/01/29 08:10:00,83.3,-3.9
2023/01/29 08:20:00,83.2,-3.6
2023/01/29 08:30:00,83.1,-3.2
2023/01/29 08:40:00,83.2,-3.6
2023/01/29 08:50:00,83.2,-3.1
2023/01/29 09:00:00,83.1,-3.1
2023/01/29 09:10:00,82.9,-2.7
2023/01/29 09:20:00,82.8,-2.8
2023/01/29 09:30:00,82.7,-2.5
2023/01/29 09:40:00,82.6,-2.7
2023/01/29 09:50:00,82.4,-2.2
2023/01/29 10:00:00,82.4,-2.0
2023/01/29 10:10:00,82.3,-1.8
2023/01/29 10:20:00,82.1,-1.7
2023/01/29 10:30:00,82.0,-1.4
2023/01/29 10:40:00,81.8,-1.4
2023/01/29 10:50:00,81.6,-0.6
2023/01/29 11:00:00,80.6,-0.8
2023/01/29 11:10:00,77.9,-1.0
2023/01/29 11:20:00,78.0,-0.6
2023/01/29 11:30:00,78.0,-0.7
2023/01/29 11:40:00,78.0,-1.4
2023/01/29 11:50:00,78.2,-1.9
2023/01/29 12:00:00,79.7,-1.7
2023/01/29 12:10:00,80.5,-1.7
2023/01/29 12:20:00,81.0,-1.8
2023/01/29 12:30:00,81.7,-1.6
2023/01/29 12:40:00,82.0,-1.7
2023/01/29 12:50:00,81.9,-2.1
2023/01/29 13:00:00,81.8,-1.9
2023/01/29 13:10:00,81.9,-1.8
2023/01/29 13:20:00,81.9,-1.2
2023/01/29 13:30:00,81.8,-1.4
2023/01/29 13:40:00,81.8,-1.3
2023/01/29 13:50:00,81.7,-0.2
2023/01/29 14:00:00,81.5,-0.6
2023/01/29 14:10:00,81.5,-0.1
2023/01/29 14:20:00,81.3,-0.4
2023/01/29 14:30:00,81.4,-0.7
2023/01/29 14:40:00,81.4,-0.6
2023/01/29 14:50:00,81.4, 0.0
2023/01/29 15:00:00,81.4, 0.1
2023/01/29 15:10:00,81.4,-0.7
2023/01/29 15:20:00,81.3,-1.1
2023/01/29 15:30:00,81.1,-0.5
2023/01/29 15:40:00,81.1,-1.1
2023/01/29 15:50:00,81.2,-1.3
2023/01/29 16:00:00,81.1,-1.1
2023/01/29 16:10:00,81.0,-1.1
2023/01/29 16:20:00,80.8,-1.8
2023/01/29 16:30:00,81.0,-1.6
2023/01/29 16:40:00,81.0,-1.9
2023/01/29 16:50:00,80.8,-1.6
2023/01/29 17:00:00,80.8,-1.9
2023/01/29 17:10:00,80.8,-2.1
2023/01/29 17:20:00,80.7,-2.4
2023/01/29 17:30:00,80.7,-2.2
2023/01/29 17:40:00,80.6,-2.2
2023/01/29 17:50:00,80.6,-2.2
2023/01/29 18:00:00,80.5,-2.4
2023/01/29 18:10:00,80.3,-2.5
2023/01/29 18:20:00,80.3,-2.6
2023/01/29 18:30:00,80.4,-2.7
2023/01/29 18:40:00,80.4,-2.1
2023/01/29 18:50:00,80.3,-2.4
2023/01/29 19:00:00,80.7,-2.8
2023/01/29 19:10:00,81.0,-2.5
2023/01/29 19:20:00,80.9,-2.8
2023/01/29 19:30:00,80.9,-2.7
2023/01/29 19:40:00,80.9,-2.8
2023/01/29 19:50:00,80.9,-2.8
2023/01/29 20:00:00,80.7,-2.5
2023/01/29 20:10:00,80.7,-2.8
2023/01/29 20:20:00,80.6,-2.6
2023/01/29 20:30:00,80.5,-2.7
2023/01/29 20:40:00,80.5,-3.0
2023/01/29 20:50:00,80.4,-2.9
2023/01/29 21:00:00,80.4,-3.2
2023/01/29 21:10:00,80.3,-3.0
2023/01/29 21:20:00,80.3,-3.0
2023/01/29 21:30:00,80.2,-2.9
2023/01/29 21:40:00,80.1,-3.2
2023/01/29 21:50:00,79.9,-3.1
2023/01/29 22:00:00,79.9,-2.9
2023/01/29 22:10:00,79.8,-3.2
2023/01/29 22:20:00,79.8,-3.2
2023/01/29 22:30:00,79.8,-3.2
2023/01/29 22:40:00,79.7,-2.9
2023/01/29 22:50:00,79.6,-3.2
2023/01/29 23:00:00,79.6,-2.9
2023/01/29 23:10:00,79.6,-3.0
2023/01/29 23:20:00,79.6,-3.3
2023/01/29 23:30:00,79.5,-3.3
2023/01/29 23:40:00,79.6,-3.4
2023/01/29 23:50:00,79.5,-3.5
